User: anonymous   Login
Location: Unspecified
(0.0000°N, 0.0000°E)
Time: 22:24:37
(UTC+00:00)
Language:

CICERO 6 - Orbit

View from above orbital plane
View from above orbital plane
View from above satellite
View from above satellite

Ground track
Ground track

The orbit data is extracted from the following two-line orbital elements,

1 42793U 17036AE  18167.83736733  .00000714  00000-0  34377-4 0  9995
2 42793  97.4002 227.7698 0012277  81.9026 278.3603 15.21875693 54549
Epoch (UTC): 16 June 2018 20:05:48
Eccentricity: 0.0012277
inclination: 97.4002°
perigee height: 492 km
apogee height: 508 km
right ascension of ascending node: 227.7698°
argument of perigee: 81.9026°
revolutions per day: 15.21875693
mean anomaly at epoch: 278.3603°
orbit number at epoch: 5454

The dashed part of the orbit path shows where the satellite is in the earth's shadow,  

DLR